sat.trackr.live / text

‹ back to catalog

HAWK-C

NORAD 43799 · 2018-099AT

PAYLOAD ACTIVE UNKNOWN

§ Identity

Operator
Country
US
Launch date
2018-12-03
Launch site
AFWTR
Launch vehicle
Mass (kg)
RCS (m²)

Purposes: tech_demo

External: N2YO · Heavens-Above · Gunter

§ Orbital elements

Epoch: 2026-09-14T20:49:33.223296Z

Period
94.16 min
Inclination
97.3792°
Eccentricity
0.0038266
Mean motion
15.29341771 rev/d
Perigee alt
451.5 km
Apogee alt
504.0 km
Semi-major
6,855.9 km
B*
2.4572e-4
RAAN
310.3186°
Arg perigee
329.6593°
Mean anomaly
30.2432°
Rev number
42,761

§ Raw data

HAWK-C1 43799U 18099AT  26257.86774564  .00007069  00000+0  24572-3 0  99922 43799  97.3792 310.3186 0038266 329.6593  30.2432 15.29341771427619

JSON: /api/v1/satellites/43799 · /tle

For live sub-satellite position, see the globe view (requires WebGL).

§ Visibility from observer

Set your observer location to see the next 7 days of passes ≥ 10°. The values pass through the URL so the page stays shareable.

No JS? Fill the form by hand. The geolocation button needs JavaScript.